#timestamp,LO_Frequency,Hit,StdDev 
1607806815.4,286047002.7,N
1607806835.2,286047000.1,N
1607806855.0,286047000.1,N
1607806856.0,286047000.1,N
1607806875.8,286046998.1,N
1607806895.6,286046998.4,N
1607806915.5,286046999.1,N
1607806935.3,286046998.4,N
1607806955.1,286046998.1,N
1607806975.9,286046998.3,N
1607806995.7,286046998.2,N
1607807015.6,286047001.2,N
1607807035.4,286046999.5,N
1607807055.2,286047000.6,N
1607807075.1,286047002.1,N
1607807076.0,286047002.1,N
1607807095.8,286047002.4,N
1607807115.6,286047002.8,N
1607807135.5,286047002.4,N
1607807155.3,286047002.6,N
1607807175.2,286047001.7,N
1607807195.9,286047004.3,N
1607807215.7,286047003.4,N
1607807235.6,286047003.0,N
1607807255.4,286047003.6,N
1607807275.2,286047003.2,N
1607807295.1,286047003.6,N
1607807296.0,286047003.6,N
1607807315.8,286047003.6,N
1607807335.7,286047003.1,N
1607807355.5,286047003.1,N
1607807375.3,286047004.0,N
1607807395.2,286047001.3,N
1607807415.0,286047003.7,N
1607807415.9,286047003.7,N
1607807435.7,286047005.8,N
1607807455.6,286047004.2,N
1607807475.4,286047003.1,N
1607807495.3,286047004.0,N
1607807515.1,286047003.4,N
1607807516.0,286047003.4,N
1607807535.8,286047004.2,Y
1607807555.7,286047002.2,P
1607807575.5,286047002.4,P
1607807595.4,286047002.3,P
1607807615.2,286047001.7,Y
1607807635.0,286047001.1,P
1607807635.9,286047001.1,N
1607807655.8,286046998.1,P
1607807675.6,286046999.1,N
1607807695.5,286046996.7,N
1607807715.3,286046997.9,N
1607807735.1,286046996.1,N
1607807755.9,286046995.8,N
1607807775.7,286046996.4,N
1607807795.5,286046993.9,N
1607807815.4,286046993.8,N
1607807835.2,286046993.5,N
1607807855.1,286046994.7,N
1607807856.0,286046994.7,N
1607807875.8,286046993.7,N
1607807895.6,286046993.3,N
1607807915.5,286046992.3,N
1607807935.3,286046992.7,N
1607807955.1,286046990.6,Y
1607807975.9,286046996.4,P
1607807995.7,286046995.1,P
1607808015.6,286046995.6,P
1607808035.4,286046994.9,Y
1607808055.2,286047000.0,P
1607808075.1,286047000.6,N
1607808076.0,286047000.6,N
1607808095.8,286046999.8,N
1607808115.6,286047002.5,N
1607808135.5,286046999.9,N
1607808155.3,286046999.8,N
1607808175.2,286047000.5,N
1607808195.9,286047002.7,N
1607808215.7,286047000.5,N
1607808235.6,286047000.6,N
1607808255.4,286047001.0,N
1607808275.2,286047002.4,N
1607808295.1,286047000.2,N
1607808296.0,286047000.2,N
1607808315.8,286047000.0,N
1607808335.7,286046999.9,N
1607808355.5,286046998.6,N
1607808375.3,286047001.0,N
1607808395.2,286047000.4,N
1607808415.9,286046998.4,N
1607808435.7,286046999.3,N
1607808455.6,286046999.1,N
1607808475.4,286046999.3,N
1607808495.2,286047000.4,N
1607808515.1,286047000.5,N
1607808516.0,286047000.5,N
1607808535.8,286047000.6,N
1607808555.7,286047000.7,N
1607808575.5,286046998.4,N
1607808595.3,286046999.0,N
1607808615.2,286046999.3,N
1607808635.0,286046998.7,N
1607808635.9,286046998.7,N
1607808655.8,286047000.0,N
1607808675.6,286047002.7,N
1607808695.4,286047002.6,N
1607808715.3,286047001.7,N
1607808735.1,286047001.6,N
1607808736.0,286047001.6,N
1607808755.8,286047001.9,N
1607808775.7,286047002.6,N
1607808795.5,286047000.1,N
1607808815.4,286046999.9,N
1607808835.2,286047000.4,N
1607808855.0,286046998.1,N
1607808855.9,286046998.1,N
1607808875.8,286046999.1,N
1607808895.6,286046998.2,N
1607808915.4,286047000.7,N
1607808935.3,286046998.5,N
1607808955.1,286047001.1,N
1607808975.9,286046999.4,N
1607808995.7,286046999.9,N
1607809015.5,286047000.3,N
1607809035.4,286047000.0,N
1607809055.2,286047002.0,N
1607809075.0,286047000.2,N
1607809075.9,286047000.2,N
1607809095.8,286047000.4,N
1607809115.6,286047000.3,N
1607809135.5,286047002.5,N
1607809155.3,286046999.9,N
1607809175.1,286046998.8,N
1607809195.9,286046998.7,N
1607809215.7,286046998.9,N
1607809235.5,286046999.0,N
1607809255.4,286046998.8,N
1607809275.2,286046998.7,N
1607809295.0,286046997.1,N
1607809296.0,286046997.1,N
1607809315.8,286046998.7,N
1607809335.6,286046998.7,N
1607809355.5,286046998.6,N
1607809375.3,286047001.1,N
1607809395.1,286046999.8,N
1607809415.9,286047000.1,N
1607809435.7,286047002.6,N
1607809455.5,286047001.8,N
1607809475.4,286047004.0,N
1607809495.2,286047001.6,N
1607809515.1,286047003.6,N
1607809516.0,286047003.6,N
1607809535.8,286047004.0,N
1607809555.6,286047000.4,N
1607809575.5,286047000.7,N
1607809595.3,286046998.3,N
1607809615.1,286046998.8,N
1607809635.9,286047001.1,N
1607809655.7,286046998.5,N
1607809675.6,286047001.0,N
1607809695.4,286047002.4,N
1607809715.2,286046999.7,N
1607809735.1,286047002.6,N
1607809736.0,286047002.6,N
1607809755.8,286047001.8,N
1607809775.6,286047000.1,N
1607809795.5,286047000.8,N
1607809815.3,286047000.6,N
1607809835.2,286047000.1,N
1607809855.9,286047000.9,N
1607809875.7,286047000.3,N
1607809895.6,286046999.7,N
1607809915.4,286047000.9,N
1607809935.2,286047002.8,N
1607809955.1,286047001.0,N
1607809956.0,286047001.0,N
1607809975.8,286046999.0,N
1607809995.7,286046996.7,N
1607810015.5,286046996.6,N
1607810035.3,286046999.4,N
1607810055.2,286046999.2,N
1607810075.9,286046999.0,N
1607810095.7,286046996.6,N
1607810115.6,286046998.7,N
1607810135.4,286046999.1,N
1607810155.3,286046998.3,N
1607810175.1,286047000.9,N
1607810176.0,286047000.9,N
1607810195.8,286047002.5,N
1607810215.7,286047000.4,N
1607810235.5,286047002.2,N
1607810255.3,286047002.6,N
1607810275.2,286047001.7,N
1607810295.0,286047001.6,N
1607810295.9,286047001.6,N
1607810315.8,286047002.5,N
1607810335.6,286047001.9,N
1607810355.4,286047004.3,N
1607810375.3,286047001.4,N
1607810395.1,286047001.5,N
